Location: Star Camp Observatory
(34.2910°N, 116.3827°W)
Time: 07:40:07
(UTC-08:00)

LightSail 2 - Visible Passes

Search period start: 22 November 2019 00:00
Search period end: 02 December 2019 00:00
Orbit: 698 x 729 km, 24.0° (Epoch: 22 November)

Date Brightness Start Highest point End Pass type
(mag) Time Alt. Az. Time Alt. Az. Time Alt. Az.
27 Nov 7.4 18:23:50 10° S 18:25:22 11° SSE 18:25:59 11° SSE visible
28 Nov 7.4 19:08:52 10° SSW 19:10:37 16° SSW 19:10:37 16° SSW visible
29 Nov 7.1 18:11:30 10° SSW 18:14:39 16° SSE 18:16:15 14° SE visible
30 Nov 7.4 17:14:27 10° S 17:16:52 13° SSE 17:19:16 10° SE visible
30 Nov 6.9 18:57:44 10° SW 19:00:51 22° S 19:00:51 22° S visible
01 Dec 6.9 18:00:07 10° SW 18:03:55 21° S 18:06:28 15° SE visible
01 Dec 7.8 19:44:42 10° SW 19:45:27 13° SW 19:45:27 13° SW visible
